Tracking 28790 objects as of 19-Apr-2024
HD Live streaming from Space Station
objects crossing your sky now

DMSP 5D-2 F13 DEB

Track DMSP 5D-2 F13 DEB now!
10-day predictions


NORAD ID: 40572
Int'l Code: 1995-015EF
Perigee: 688.2 km
Apogee: 705.6 km
Inclination: 98.7 °
Period: 98.6 minutes
Semi major axis: 7067 km
RCS: Unknown
Launch date: March 24, 1995
Source: United States (US)
Launch site: AIR FORCE WESTERN TEST RANGE (AFWTR)

Note: This is SATELLITE DEBRIS
Your satellite tracking list
Your tracking list is empty




NASA's NSSDC Master Catalog

Two Line Element Set (TLE):
1 40572U 95015EF  24107.42267174  .00069748  00000-0  14052-1 0  9992
2 40572  98.6790 162.2314 0012363 357.7894   2.3248 14.61056987472230
Source of the keplerian elements: AFSPC